Inzhener Nazarov — UAGO — position and weather

sailwx.info

Track history (hours):
 
Tides and Currents Weather Stations Pressure Air Temp Water Temp Dewpoint Dewpoint Depression Visibility Wind Speed Wind Dir Waves Ship Positions

Inzhener Nazarov

Last reported at 2017-Dec-14 14:59 UTC. Time now 2018-Feb-18 18:24 UTC.
Position N 45°28' E 036°43'.
Warning: this ship's position is months out of date.

Length 132 m; draft 2.6 m.

Type: Tanker. MMSI: 273310100.

Date/timePositionNaut miles runAvg speedWind from/ knotsBaromVisibWave heightAir tempDewpointWater temp
2017-Dec-14 14:59N 45°28' E 036°43'4 8.1
2017-Dec-14 14:30N 45°24' E 036°41'4 7.2
2017-Dec-14 14:00N 45°21' E 036°40'3 6.2
2017-Dec-14 13:30N 45°20' E 036°36'5 6.3
2017-Dec-14 12:39N 45°17' E 036°29'2 7.2
2017-Dec-14 12:19N 45°14' E 036°30'5 1.5
2017-Dec-14 09:19N 45°11' E 036°33'0 0.1
2017-Dec-14 08:53N 45°11' E 036°33'0 1.0
2017-Dec-14 08:28N 45°11' E 036°34'4 0.5
2017-Dec-13 22:41N 45°14' E 036°30'2 6.9
2017-Dec-13 22:24N 45°13' E 036°30'1 0.0
2017-Dec-13 02:13N 45°13' E 036°31'0 0.0
2017-Dec-13 01:59N 45°13' E 036°31'0 0.0
2017-Dec-11 17:27N 45°13' E 036°31'0 0.0
2017-Dec-11 16:39N 45°13' E 036°31'0 0.0
2017-Dec-11 16:30N 45°13' E 036°31'0 0.0
2017-Dec-11 15:45N 45°13' E 036°31'0 0.0
2017-Dec-11 15:30N 45°13' E 036°31'0 0.0
2017-Dec-11 14:57N 45°13' E 036°31'0 0.0
2017-Dec-11 14:16N 45°13' E 036°31'0 0.0
2017-Dec-11 14:00N 45°13' E 036°31'0 0.0
2017-Dec-11 13:30N 45°13' E 036°31'0 0.0
2017-Dec-11 12:58N 45°13' E 036°31'0 0.0
2017-Dec-11 12:25N 45°13' E 036°31'0 0.0
2017-Dec-11 11:51N 45°13' E 036°31'0 0.0
2017-Dec-11 11:28N 45°13' E 036°31'0 0.0
2017-Dec-11 10:57N 45°13' E 036°31'0 0.0
2017-Dec-11 10:29N 45°13' E 036°31'0 0.0
2017-Dec-11 09:51N 45°13' E 036°31'0 0.0
2017-Dec-11 09:28N 45°13' E 036°31'0 0.0
2017-Dec-11 08:58N 45°13' E 036°31'0 0.0
2017-Dec-11 08:23N 45°13' E 036°31'0 0.0
2017-Dec-11 07:58N 45°13' E 036°31'0 0.0
2017-Dec-11 06:31N 45°13' E 036°31'0 0.0
2017-Dec-11 06:11N 45°13' E 036°31'0 0.1
2017-Dec-11 06:00N 45°13' E 036°31'0 0.0
2017-Dec-11 04:26N 45°13' E 036°31'0 0.0
2017-Dec-10 21:44N 45°13' E 036°31'0 0.0
2017-Dec-10 21:30N 45°13' E 036°31'0 0.0
2017-Dec-10 18:41N 45°13' E 036°31'0 0.0
2017-Dec-10 18:23N 45°13' E 036°31'0 0.0
2017-Dec-10 18:00N 45°13' E 036°31'0 0.0
2017-Dec-10 13:28N 45°13' E 036°31'0 0.0
2017-Dec-10 12:56N 45°13' E 036°31'0 0.0
2017-Dec-10 06:36N 45°13' E 036°31'0 0.0
2017-Dec-10 03:20N 45°13' E 036°31'0 0.0
2017-Dec-09 07:21N 45°13' E 036°31'0 0.0
2017-Dec-09 06:01N 45°13' E 036°31'0 0.1
2017-Dec-09 05:57N 45°13' E 036°31'0 0.0
2017-Dec-09 05:29N 45°13' E 036°31'0 0.0
2017-Dec-09 04:59N 45°13' E 036°31'0 0.0
2017-Dec-09 04:28N 45°13' E 036°31'0 0.0
2017-Dec-09 03:55N 45°13' E 036°31'0 0.0
2017-Dec-09 03:19N 45°13' E 036°31'0 0.0
2017-Dec-09 02:58N 45°13' E 036°31'0 0.0
2017-Dec-09 02:28N 45°13' E 036°31'0 0.0
2017-Dec-09 02:00N 45°13' E 036°31'0 0.0
2017-Dec-09 01:30N 45°13' E 036°31'1 0.7
2017-Dec-09 00:38N 45°14' E 036°30'1 6.0
2017-Dec-09 00:30N 45°14' E 036°29'3 5.0
2017-Dec-08 23:58N 45°17' E 036°29'2 5.3
2017-Dec-08 23:30N 45°19' E 036°31'3 5.4
2017-Dec-08 23:00N 45°19' E 036°35'2 4.9
2017-Dec-08 22:30N 45°20' E 036°38'2 4.9
2017-Dec-08 22:00N 45°22' E 036°41'2 3.1
2017-Dec-08 21:30N 45°23' E 036°42'0 0.0
2017-Dec-08 20:59N 45°23' E 036°42'0 0.1
2017-Dec-08 20:27N 45°23' E 036°42'0 0.0
2017-Dec-08 19:57N 45°23' E 036°42'0 0.0
2017-Dec-08 19:29N 45°23' E 036°42'0 0.0
2017-Dec-08 18:58N 45°23' E 036°42'0 0.0
2017-Dec-08 18:24N 45°23' E 036°42'0 0.1
2017-Dec-08 17:53N 45°23' E 036°42'0 0.1
2017-Dec-08 17:28N 45°23' E 036°42'0 0.1
2017-Dec-08 17:00N 45°23' E 036°42'0 0.1
2017-Dec-08 16:30N 45°23' E 036°42'0 0.0
2017-Dec-08 15:58N 45°23' E 036°42'0 0.0
2017-Dec-08 15:28N 45°23' E 036°42'0 0.0
2017-Dec-08 15:00N 45°23' E 036°42'0 0.0
2017-Dec-08 14:29N 45°23' E 036°42'0 0.0
2017-Dec-08 13:57N 45°23' E 036°42'0 0.1
2017-Dec-08 13:27N 45°23' E 036°42'0 0.0
2017-Dec-08 12:55N 45°23' E 036°42'0 0.0
2017-Dec-08 12:28N 45°23' E 036°42'0 0.1
2017-Dec-08 12:00N 45°23' E 036°42'0 0.0
2017-Dec-08 11:28N 45°23' E 036°42'0 0.1
2017-Dec-08 10:59N 45°23' E 036°42'0 0.0
2017-Dec-08 10:24N 45°23' E 036°42'0 0.1
2017-Dec-08 10:00N 45°23' E 036°42'0 0.0
2017-Dec-08 09:29N 45°23' E 036°42'0 0.1
2017-Dec-08 09:00N 45°23' E 036°42'0 0.0
2017-Dec-08 08:27N 45°23' E 036°42'0 0.0
2017-Dec-08 07:59N 45°23' E 036°42'0 0.0
2017-Dec-08 07:28N 45°23' E 036°42'0 0.0
2017-Dec-08 07:00N 45°23' E 036°42'0 0.0
2017-Dec-08 06:27N 45°23' E 036°42'0 0.0
2017-Dec-08 06:00N 45°23' E 036°42'0 0.0
2017-Dec-08 05:29N 45°23' E 036°42'0 0.0
2017-Dec-08 04:58N 45°23' E 036°42'0 0.0
2017-Dec-08 04:28N 45°23' E 036°42'0 0.0
2017-Dec-08 04:00N 45°23' E 036°42'0 0.0
2017-Dec-08 03:30N 45°23' E 036°42'0 0.0
2017-Dec-08 03:00N 45°23' E 036°42'0 0.0
2017-Dec-08 02:29N 45°23' E 036°42'0 0.0
2017-Dec-08 02:00N 45°23' E 036°42'0 0.0
2017-Dec-08 01:28N 45°23' E 036°42'0 0.0
2017-Dec-08 00:58N 45°23' E 036°42'0 0.0
2017-Dec-08 00:29N 45°23' E 036°42'0 0.0
2017-Dec-08 00:00N 45°23' E 036°42'0 0.0
2017-Dec-07 23:29N 45°23' E 036°42'0 0.0
2017-Dec-07 23:00N 45°23' E 036°42'0 0.0
2017-Dec-07 22:23N 45°23' E 036°42'0 0.0
2017-Dec-07 22:00N 45°23' E 036°42'0 0.0
2017-Dec-07 21:25N 45°23' E 036°42'0 0.0
2017-Dec-07 20:55N 45°23' E 036°42'0 0.0
2017-Dec-07 20:30N 45°23' E 036°42'0 0.0
2017-Dec-07 19:59N 45°23' E 036°42'0 0.0
2017-Dec-07 19:30N 45°23' E 036°42'0 0.0
2017-Dec-07 18:56N 45°23' E 036°42'0 0.0
2017-Dec-07 18:30N 45°23' E 036°42'0 0.0
2017-Dec-07 18:00N 45°23' E 036°42'0 0.0
2017-Dec-07 17:29N 45°23' E 036°42'0 0.0
2017-Dec-07 16:56N 45°23' E 036°42'0 0.0
2017-Dec-07 16:28N 45°23' E 036°42'0 0.0
2017-Dec-07 16:00N 45°23' E 036°42'0 0.0
2017-Dec-07 15:29N 45°23' E 036°42'0 0.0
2017-Dec-07 14:58N 45°23' E 036°42'0 0.0
2017-Dec-07 14:30N 45°23' E 036°42'0 0.0
2017-Dec-07 13:57N 45°23' E 036°42'0 0.0
2017-Dec-07 13:27N 45°23' E 036°42'0 0.0
2017-Dec-07 12:58N 45°23' E 036°42'0 0.0
2017-Dec-07 12:23N 45°23' E 036°42'0 0.0
2017-Dec-07 11:59N 45°23' E 036°42'0 0.0
2017-Dec-07 11:30N 45°23' E 036°42'0 0.0
2017-Dec-07 10:58N 45°23' E 036°42'0 0.0
2017-Dec-07 10:23N 45°23' E 036°42'0 0.0
2017-Dec-07 09:59N 45°23' E 036°42'0 0.0
2017-Dec-07 09:27N 45°23' E 036°42'0 0.0
2017-Dec-07 08:57N 45°23' E 036°42'0 0.0
2017-Dec-07 08:27N 45°23' E 036°42'0 0.0
2017-Dec-07 08:00N 45°23' E 036°42'0 0.0
2017-Dec-07 07:30N 45°23' E 036°42'0 0.0
2017-Dec-07 06:59N 45°23' E 036°42'0 0.0
2017-Dec-07 06:30N 45°23' E 036°42'0 0.0
2017-Dec-07 06:00N 45°23' E 036°42'0 0.0
2017-Dec-07 05:26N 45°23' E 036°42'0 0.0
2017-Dec-07 04:58N 45°23' E 036°42'0 0.0
2017-Dec-07 04:29N 45°23' E 036°42'0 0.0
2017-Dec-07 04:00N 45°23' E 036°42'0 0.0
2017-Dec-07 03:29N 45°23' E 036°42'0 0.0
2017-Dec-07 03:00N 45°23' E 036°42'0 0.0
2017-Dec-07 02:29N 45°23' E 036°42'0 0.0
2017-Dec-07 02:00N 45°23' E 036°42'0 0.0
2017-Dec-07 01:29N 45°23' E 036°42'0 0.0
2017-Dec-07 00:59N 45°23' E 036°42'0 0.0
2017-Dec-07 00:25N 45°23' E 036°42'0 0.0
2017-Dec-06 23:53N 45°23' E 036°42'0 0.0
2017-Dec-06 23:29N 45°23' E 036°42'0 0.0
2017-Dec-06 22:58N 45°23' E 036°42'0 0.0
2017-Dec-06 22:30N 45°23' E 036°42'0 0.0
2017-Dec-06 21:59N 45°23' E 036°42'0 0.0
2017-Dec-06 21:29N 45°23' E 036°42'0 0.0
2017-Dec-06 20:56N 45°23' E 036°42'  
Track history (hours):
 
Tides and Currents Weather Stations Pressure Air Temp Water Temp Dewpoint Dewpoint Depression Visibility Wind Speed Wind Dir Waves Ship Positions

Inzhener Nazarov

Last reported at 2017-Dec-14 14:59 UTC. Time now 2018-Feb-18 18:24 UTC.
Position N 45°28' E 036°43'.
Warning: this ship's position is months out of date.

Length 132 m; draft 2.6 m.

Type: Tanker. MMSI: 273310100.

Date/timePositionNaut miles runAvg speedWind from/ knotsBaromVisibWave heightAir tempDewpointWater temp
2017-Dec-14 14:59N 45°28' E 036°43'4 8.1
2017-Dec-14 14:30N 45°24' E 036°41'4 7.2
2017-Dec-14 14:00N 45°21' E 036°40'3 6.2
2017-Dec-14 13:30N 45°20' E 036°36'5 6.3
2017-Dec-14 12:39N 45°17' E 036°29'2 7.2
2017-Dec-14 12:19N 45°14' E 036°30'5 1.5
2017-Dec-14 09:19N 45°11' E 036°33'0 0.1
2017-Dec-14 08:53N 45°11' E 036°33'0 1.0
2017-Dec-14 08:28N 45°11' E 036°34'4 0.5
2017-Dec-13 22:41N 45°14' E 036°30'2 6.9
2017-Dec-13 22:24N 45°13' E 036°30'1 0.0
2017-Dec-13 02:13N 45°13' E 036°31'0 0.0
2017-Dec-13 01:59N 45°13' E 036°31'0 0.0
2017-Dec-11 17:27N 45°13' E 036°31'0 0.0
2017-Dec-11 16:39N 45°13' E 036°31'0 0.0
2017-Dec-11 16:30N 45°13' E 036°31'0 0.0
2017-Dec-11 15:45N 45°13' E 036°31'0 0.0
2017-Dec-11 15:30N 45°13' E 036°31'0 0.0
2017-Dec-11 14:57N 45°13' E 036°31'0 0.0
2017-Dec-11 14:16N 45°13' E 036°31'0 0.0
2017-Dec-11 14:00N 45°13' E 036°31'0 0.0
2017-Dec-11 13:30N 45°13' E 036°31'0 0.0
2017-Dec-11 12:58N 45°13' E 036°31'0 0.0
2017-Dec-11 12:25N 45°13' E 036°31'0 0.0
2017-Dec-11 11:51N 45°13' E 036°31'0 0.0
2017-Dec-11 11:28N 45°13' E 036°31'0 0.0
2017-Dec-11 10:57N 45°13' E 036°31'0 0.0
2017-Dec-11 10:29N 45°13' E 036°31'0 0.0
2017-Dec-11 09:51N 45°13' E 036°31'0 0.0
2017-Dec-11 09:28N 45°13' E 036°31'0 0.0
2017-Dec-11 08:58N 45°13' E 036°31'0 0.0
2017-Dec-11 08:23N 45°13' E 036°31'0 0.0
2017-Dec-11 07:58N 45°13' E 036°31'0 0.0
2017-Dec-11 06:31N 45°13' E 036°31'0 0.0
2017-Dec-11 06:11N 45°13' E 036°31'0 0.1
2017-Dec-11 06:00N 45°13' E 036°31'0 0.0
2017-Dec-11 04:26N 45°13' E 036°31'0 0.0
2017-Dec-10 21:44N 45°13' E 036°31'0 0.0
2017-Dec-10 21:30N 45°13' E 036°31'0 0.0
2017-Dec-10 18:41N 45°13' E 036°31'0 0.0
2017-Dec-10 18:23N 45°13' E 036°31'0 0.0
2017-Dec-10 18:00N 45°13' E 036°31'0 0.0
2017-Dec-10 13:28N 45°13' E 036°31'0 0.0
2017-Dec-10 12:56N 45°13' E 036°31'0 0.0
2017-Dec-10 06:36N 45°13' E 036°31'0 0.0
2017-Dec-10 03:20N 45°13' E 036°31'0 0.0
2017-Dec-09 07:21N 45°13' E 036°31'0 0.0
2017-Dec-09 06:01N 45°13' E 036°31'0 0.1
2017-Dec-09 05:57N 45°13' E 036°31'0 0.0
2017-Dec-09 05:29N 45°13' E 036°31'0 0.0
2017-Dec-09 04:59N 45°13' E 036°31'0 0.0
2017-Dec-09 04:28N 45°13' E 036°31'0 0.0
2017-Dec-09 03:55N 45°13' E 036°31'0 0.0
2017-Dec-09 03:19N 45°13' E 036°31'0 0.0
2017-Dec-09 02:58N 45°13' E 036°31'0 0.0
2017-Dec-09 02:28N 45°13' E 036°31'0 0.0
2017-Dec-09 02:00N 45°13' E 036°31'0 0.0
2017-Dec-09 01:30N 45°13' E 036°31'1 0.7
2017-Dec-09 00:38N 45°14' E 036°30'1 6.0
2017-Dec-09 00:30N 45°14' E 036°29'3 5.0
2017-Dec-08 23:58N 45°17' E 036°29'2 5.3
2017-Dec-08 23:30N 45°19' E 036°31'3 5.4
2017-Dec-08 23:00N 45°19' E 036°35'2 4.9
2017-Dec-08 22:30N 45°20' E 036°38'2 4.9
2017-Dec-08 22:00N 45°22' E 036°41'2 3.1
2017-Dec-08 21:30N 45°23' E 036°42'0 0.0
2017-Dec-08 20:59N 45°23' E 036°42'0 0.1
2017-Dec-08 20:27N 45°23' E 036°42'0 0.0
2017-Dec-08 19:57N 45°23' E 036°42'0 0.0
2017-Dec-08 19:29N 45°23' E 036°42'0 0.0
2017-Dec-08 18:58N 45°23' E 036°42'0 0.0
2017-Dec-08 18:24N 45°23' E 036°42'0 0.1
2017-Dec-08 17:53N 45°23' E 036°42'0 0.1
2017-Dec-08 17:28N 45°23' E 036°42'0 0.1
2017-Dec-08 17:00N 45°23' E 036°42'0 0.1
2017-Dec-08 16:30N 45°23' E 036°42'0 0.0
2017-Dec-08 15:58N 45°23' E 036°42'0 0.0
2017-Dec-08 15:28N 45°23' E 036°42'0 0.0
2017-Dec-08 15:00N 45°23' E 036°42'0 0.0
2017-Dec-08 14:29N 45°23' E 036°42'0 0.0
2017-Dec-08 13:57N 45°23' E 036°42'0 0.1
2017-Dec-08 13:27N 45°23' E 036°42'0 0.0
2017-Dec-08 12:55N 45°23' E 036°42'0 0.0
2017-Dec-08 12:28N 45°23' E 036°42'0 0.1
2017-Dec-08 12:00N 45°23' E 036°42'0 0.0
2017-Dec-08 11:28N 45°23' E 036°42'0 0.1
2017-Dec-08 10:59N 45°23' E 036°42'0 0.0
2017-Dec-08 10:24N 45°23' E 036°42'0 0.1
2017-Dec-08 10:00N 45°23' E 036°42'0 0.0
2017-Dec-08 09:29N 45°23' E 036°42'0 0.1
2017-Dec-08 09:00N 45°23' E 036°42'0 0.0
2017-Dec-08 08:27N 45°23' E 036°42'0 0.0
2017-Dec-08 07:59N 45°23' E 036°42'0 0.0
2017-Dec-08 07:28N 45°23' E 036°42'0 0.0
2017-Dec-08 07:00N 45°23' E 036°42'0 0.0
2017-Dec-08 06:27N 45°23' E 036°42'0 0.0
2017-Dec-08 06:00N 45°23' E 036°42'0 0.0
2017-Dec-08 05:29N 45°23' E 036°42'0 0.0
2017-Dec-08 04:58N 45°23' E 036°42'0 0.0
2017-Dec-08 04:28N 45°23' E 036°42'0 0.0
2017-Dec-08 04:00N 45°23' E 036°42'0 0.0
2017-Dec-08 03:30N 45°23' E 036°42'0 0.0
2017-Dec-08 03:00N 45°23' E 036°42'0 0.0
2017-Dec-08 02:29N 45°23' E 036°42'0 0.0
2017-Dec-08 02:00N 45°23' E 036°42'0 0.0
2017-Dec-08 01:28N 45°23' E 036°42'0 0.0
2017-Dec-08 00:58N 45°23' E 036°42'0 0.0
2017-Dec-08 00:29N 45°23' E 036°42'0 0.0
2017-Dec-08 00:00N 45°23' E 036°42'0 0.0
2017-Dec-07 23:29N 45°23' E 036°42'0 0.0
2017-Dec-07 23:00N 45°23' E 036°42'0 0.0
2017-Dec-07 22:23N 45°23' E 036°42'0 0.0
2017-Dec-07 22:00N 45°23' E 036°42'0 0.0
2017-Dec-07 21:25N 45°23' E 036°42'0 0.0
2017-Dec-07 20:55N 45°23' E 036°42'0 0.0
2017-Dec-07 20:30N 45°23' E 036°42'0 0.0
2017-Dec-07 19:59N 45°23' E 036°42'0 0.0
2017-Dec-07 19:30N 45°23' E 036°42'0 0.0
2017-Dec-07 18:56N 45°23' E 036°42'0 0.0
2017-Dec-07 18:30N 45°23' E 036°42'0 0.0
2017-Dec-07 18:00N 45°23' E 036°42'0 0.0
2017-Dec-07 17:29N 45°23' E 036°42'0 0.0
2017-Dec-07 16:56N 45°23' E 036°42'0 0.0
2017-Dec-07 16:28N 45°23' E 036°42'0 0.0
2017-Dec-07 16:00N 45°23' E 036°42'0 0.0
2017-Dec-07 15:29N 45°23' E 036°42'0 0.0
2017-Dec-07 14:58N 45°23' E 036°42'0 0.0
2017-Dec-07 14:30N 45°23' E 036°42'0 0.0
2017-Dec-07 13:57N 45°23' E 036°42'0 0.0
2017-Dec-07 13:27N 45°23' E 036°42'0 0.0
2017-Dec-07 12:58N 45°23' E 036°42'0 0.0
2017-Dec-07 12:23N 45°23' E 036°42'0 0.0
2017-Dec-07 11:59N 45°23' E 036°42'0 0.0
2017-Dec-07 11:30N 45°23' E 036°42'0 0.0
2017-Dec-07 10:58N 45°23' E 036°42'0 0.0
2017-Dec-07 10:23N 45°23' E 036°42'0 0.0
2017-Dec-07 09:59N 45°23' E 036°42'0 0.0
2017-Dec-07 09:27N 45°23' E 036°42'0 0.0
2017-Dec-07 08:57N 45°23' E 036°42'0 0.0
2017-Dec-07 08:27N 45°23' E 036°42'0 0.0
2017-Dec-07 08:00N 45°23' E 036°42'0 0.0
2017-Dec-07 07:30N 45°23' E 036°42'0 0.0
2017-Dec-07 06:59N 45°23' E 036°42'0 0.0
2017-Dec-07 06:30N 45°23' E 036°42'0 0.0
2017-Dec-07 06:00N 45°23' E 036°42'0 0.0
2017-Dec-07 05:26N 45°23' E 036°42'0 0.0
2017-Dec-07 04:58N 45°23' E 036°42'0 0.0
2017-Dec-07 04:29N 45°23' E 036°42'0 0.0
2017-Dec-07 04:00N 45°23' E 036°42'0 0.0
2017-Dec-07 03:29N 45°23' E 036°42'0 0.0
2017-Dec-07 03:00N 45°23' E 036°42'0 0.0
2017-Dec-07 02:29N 45°23' E 036°42'0 0.0
2017-Dec-07 02:00N 45°23' E 036°42'0 0.0
2017-Dec-07 01:29N 45°23' E 036°42'0 0.0
2017-Dec-07 00:59N 45°23' E 036°42'0 0.0
2017-Dec-07 00:25N 45°23' E 036°42'0 0.0
2017-Dec-06 23:53N 45°23' E 036°42'0 0.0
2017-Dec-06 23:29N 45°23' E 036°42'0 0.0
2017-Dec-06 22:58N 45°23' E 036°42'0 0.0
2017-Dec-06 22:30N 45°23' E 036°42'0 0.0
2017-Dec-06 21:59N 45°23' E 036°42'0 0.0
2017-Dec-06 21:29N 45°23' E 036°42'0 0.0
2017-Dec-06 20:56N 45°23' E 036°42'  

Dump ship's entire track history